Bogota, Colombia

6:18 AM COT on December 10, 2016 (GMT -0500)
El Dorado International Airport

Weather History for SKBO - October, 2012

Change the Weather History Date:

Thursday, October 11, 2012

  Actual Average Record
Temperature  
Mean Temperature 59 °F -  
Max Temperature 69 °F 64 °F 78 °F (2007)
Min Temperature 49 °F 46 °F 42 °F (2004)
Degree Days  
Heating Degree Days 6    
Growing Degree Days 9 (Base 50)    
Moisture  
Dew Point 50 °F    
Average Humidity 81    
Maximum Humidity 100    
Minimum Humidity 43    
Precipitation  
Precipitation 0.63 in 0.14 in - ()
Sea Level Pressure  
Sea Level Pressure 30.28 in    
Wind  
Wind Speed 5 mph ()    
Max Wind Speed 20 mph    
Max Gust Speed -    
Visibility 4.2 miles    
Events Rain , Thunderstorm    
Averages and records for this station are not official NWS values.
T = Trace of Precipitation, MM = Missing Value Source: Averaged Metar Reports

Daily Weather History Graph

Daily Weather History Graph

Search for Another Location

Airport or City:

Trip Planner

Search our weather history database for the weather conditions in past years. The results will help you decide how hot, cold, wet, or windy it might be!

Date:

Astronomy

Oct. 11, 2012 Rise Set
Actual Time 5:42 AM COT 5:44 PM COT
Civil Twilight 5:21 AM COT 6:04 PM COT
Nautical Twilight 4:57 AM COT 6:29 PM COT
Astronomical Twilight 4:32 AM COT 6:53 PM COT
Moon 2:08 AM COT (10/11) 2:36 PM COT (10/11)
Length of Visible Light 12h 43m
Length of Day
12h 01m
Waning Crescent, 18% of the Moon is Illuminated
Oct 11
Waning Crescent
Oct 15
New
Oct 21
First Quarter
Oct 29
Full
Nov 6
Last Quarter

Hourly Weather History & Observations

Time (COT) Temp. Dew Point Humidity Pressure Visibility Wind Dir Wind Speed Gust Speed Precip Events Conditions
12:00 AM 48.2 °F 46.4 °F 93% 30.30 in 3.7 mi NW 3.5 mph - N/A   Mostly Cloudy
1:00 AM 50 °F 49 °F 96%  in 4 mi NNW 2.2 mph - -   Mist
1:00 AM 50.0 °F 50.0 °F 100% 30.29 in 3.7 mi Variable 2.3 mph - N/A   Mostly Cloudy
2:00 AM 51.8 °F 50.0 °F 94% 30.27 in 3.7 mi Variable 2.3 mph - N/A   Scattered Clouds
3:00 AM 50.0 °F 48.2 °F 94% 30.26 in 3.7 mi NNW 3.5 mph - N/A   Mostly Cloudy
4:00 AM 51 °F 50 °F 95%  in 4 mi NW 4.5 mph - -   Mist
4:00 AM 51.8 °F 50.0 °F 94% 30.26 in 3.7 mi NW 4.6 mph - N/A   Mostly Cloudy
5:00 AM 51.8 °F 50.0 °F 94% 30.26 in 3.7 mi Variable 2.3 mph - N/A   Mostly Cloudy
5:30 AM 51.8 °F 50.0 °F 94% 30.28 in 5.0 mi Calm Calm - N/A   Mostly Cloudy
6:00 AM 50.0 °F 50.0 °F 100% 30.29 in 2.5 mi WNW 3.5 mph - N/A   Overcast
7:00 AM 51 °F 50 °F 93%  in 6 mi NNW 4.5 mph - -   Mist
7:00 AM 51.8 °F 50.0 °F 94% 30.31 in 1.9 mi NNW 4.6 mph - N/A   Overcast
8:00 AM 55.4 °F 51.8 °F 88% 30.33 in 1.9 mi North 3.5 mph - N/A   Mostly Cloudy
9:00 AM 60.8 °F 51.8 °F 72% 30.35 in 1.9 mi ESE 4.6 mph - N/A   Scattered Clouds
10:00 AM 63 °F 49 °F 51%  in 2 mi WSW 4.5 mph - -   Mist
10:00 AM 62.6 °F 50.0 °F 63% 30.34 in 1.9 mi WSW 4.6 mph - N/A   Mist
10:14 AM 64.4 °F 48.2 °F 56% 30.33 in 2.5 mi NW 4.6 mph - N/A   Haze
11:00 AM 66.2 °F 46.4 °F 49% 30.31 in 3.7 mi WSW 3.5 mph - N/A   Scattered Clouds
12:00 PM 69.8 °F 46.4 °F 43% 30.28 in 6.2 mi North 5.8 mph - N/A   Mostly Cloudy
1:00 PM 66 °F 52 °F 50%  in 3 mi West 20.1 mph - -   Mostly Cloudy
1:00 PM 66.2 °F 51.8 °F 60% 30.24 in 6.2 mi West 19.6 mph - N/A   Scattered Clouds
1:15 PM 60.8 °F 55.4 °F 82% 30.24 in 1.9 mi WSW 17.3 mph - N/A Rain , Thunderstorm Heavy Thunderstorms and Rain
2:00 PM 59.0 °F 53.6 °F 82% 30.24 in 1.9 mi South 18.4 mph - N/A Rain , Thunderstorm Heavy Thunderstorms and Rain
2:36 PM 57.2 °F 50.0 °F 77% 30.22 in 3.1 mi NW 13.8 mph - N/A Rain , Thunderstorm Light Thunderstorms and Rain
3:00 PM 59.0 °F 55.4 °F 88% 30.22 in 3.7 mi West 8.1 mph - N/A Rain , Thunderstorm Light Thunderstorms and Rain
4:00 PM 59 °F 52 °F 72%  in 5 mi West 13.4 mph - - Rain , Thunderstorm Thunderstorms and Rain
4:00 PM 59.0 °F 53.6 °F 82% 30.21 in 5.0 mi West 12.7 mph - N/A Rain , Thunderstorm Light Thunderstorms and Rain
5:00 PM 59.0 °F 53.6 °F 82% 30.23 in 6.2 mi Variable 2.3 mph - N/A   Mostly Cloudy
6:00 PM 55.4 °F 50.0 °F 82% 30.26 in 6.2 mi NNW 4.6 mph - N/A   Mostly Cloudy
7:00 PM 54 °F 49 °F 77%  in 6 mi NNE 4.5 mph - -   Haze
7:00 PM 53.6 °F 48.2 °F 82% 30.29 in 6.2 mi NNE 3.5 mph - N/A   Scattered Clouds
8:00 PM 53.6 °F 50.0 °F 88% 30.32 in 6.2 mi NNE 4.6 mph - N/A   Scattered Clouds
9:00 PM 53.6 °F 50.0 °F 88% 30.33 in 6.2 mi ENE 4.6 mph - N/A   Scattered Clouds
10:00 PM 54 °F 50 °F 80%  in 7 mi NNE 4.5 mph - -   Haze
10:00 PM 53.6 °F 50.0 °F 88% 30.35 in 6.2 mi NNE 4.6 mph - N/A   Scattered Clouds
11:00 PM 51.8 °F 48.2 °F 88% 30.35 in 6.2 mi NNW 3.5 mph - N/A   Scattered Clouds